This is the latest recevied weather packets stored in our database for station/object EW2905. If no packets are shown the sender has not sent any weather packets the latest 10 day(s).
| Time | Temp. | Humidity | Pressure | Rain* | Wind** | Luminosity | Snow |
|---|---|---|---|---|---|---|---|
| 1777723955 | 23.33° C | 28% | 1023.1 hPa | 0 mm | - | - | - |
| 1777723775 | 22.78° C | 31% | 1023.1 hPa | 0 mm | - | - | - |
| 1777723595 | 22.78° C | 30% | 1023.1 hPa | 0 mm | - | - | - |
| 1777723235 | 21.67° C | 29% | 1023.1 hPa | 0 mm | - | - | - |
| 1777723055 | 21.67° C | 31% | 1023.1 hPa | 0 mm | - | - | - |
| 1777722875 | 21.67° C | 32% | 1023.1 hPa | 0 mm | - | - | - |
| 1777722695 | 21.67° C | 30% | 1023.1 hPa | 0 mm | - | - | - |
| 1777722515 | 21.67° C | 28% | 1023.1 hPa | 0 mm | - | - | - |
| 1777722335 | 21.67° C | 30% | 1023.1 hPa | 0 mm | - | - | - |
| 1777722155 | 21.67° C | 28% | 1023.1 hPa | 0 mm | - | - | - |
| 1777721975 | 21.67° C | 28% | 1023.1 hPa | 0 mm | - | - | - |
| 1777721795 | 21.67° C | 28% | 1023.1 hPa | 0 mm | - | - | - |
| 1777721435 | 21.67° C | 29% | 1023.1 hPa | 0 mm | - | - | - |
| 1777721255 | 21.67° C | 30% | 1023.1 hPa | 0 mm | - | - | - |
| 1777720895 | 21.67° C | 29% | 1024.5 hPa | 0 mm | - | - | - |
| 1777720535 | 22.22° C | 28% | 1024.5 hPa | 0 mm | - | - | - |
| 1777719815 | 22.22° C | 31% | 1024.5 hPa | 0 mm | - | - | - |
| 1777719635 | 22.78° C | 26% | 1024.5 hPa | 0 mm | - | - | - |
| 1777719455 | 22.78° C | 27% | 1024.5 hPa | 0 mm | - | - | - |
| 1777719275 | 22.78° C | 28% | 1024.5 hPa | 0 mm | - | - | - |
| 1777718915 | 21.67° C | 28% | 1024.5 hPa | 0 mm | - | - | - |
| 1777718735 | 21.67° C | 28% | 1024.5 hPa | 0 mm | - | - | - |
| 1777718555 | 21.11° C | 28% | 1024.5 hPa | 0 mm | - | - | - |
| 1777718375 | 21.11° C | 34% | 1024.5 hPa | 0 mm | - | - | - |
| 1777718195 | 21.11° C | 29% | 1024.5 hPa | 0 mm | - | - | - |
* Rain latest hour (hover to see other rain measurements)
** Current wind speed in m/s (hover to see current wind gust speed)